STARLINK-32624, 61926

Orbit data source: Space-Track

STARLINK-32624, 61926 is a payload satellite owned by SpaceX/Seattle (US) in LEO that was launched on Mon, 11 Nov 2024 UTC via an FALCON 9 launch vehicle from the Air Force Eastern Test Range (AFETR). Payloads include a variety of satellites, spacecraft, and rockets equipped with specific instruments for various scientific and technological missions. These include communications satellites like Starlink; space stations such as the ISS; scientific satellites like the Hubble; Earth observation satellites from companies like Planet Labs, Umbra, and HawkEye 360; GPS; miniature CubeSats for education and research; and military/defense satellites.

Loading next visibility...
STARLINK-32624 details
Identifier
61926, 2024-207Q
Orbit
LEO
Last TLE update9 hours ago
Origin
Flag of USSpaceX/Seattle (US)
ManufacturerSpaceX/Seattle
MissionOperational spacecraft
Bus & MotorSTARLINK V2M, Unknown motor
Mass730 kg wet, ~700 kg dry
Launch date (UTC)
2024-11-11 (1 week ago)
Launch vehicle
FALCON 9
Launch site
Air Force Eastern Test Range (AFETR)
Object type
Payload
Rocket body
Debris
Shape & HBRUnknown
Radar Cross SectionRCS unknown

Expand to show TLE details & history

TLE from 9 hours ago
0 STARLINK-32624
1 61926U 24207Q   24325.91668981 -.00724756  00000-0 -23871-2 0  9999
2 61926  43.0024  94.4501 0001678 288.9267 244.3239 15.91071057  2652
Epoch: 2024-11-20T22:00Z
Definitive object data (Epoch: 2024-11-20T22:00:01.999Z)
Latitude4.57819°
Longitude-120.86184°
Altitude299.061 km
Speed7.73 km/s
True Right ascension17h 58m 12s
True Declination4° 32' 57"
Sunlit
Object was in daylight at TLE epoch
Visualization TLE readout
Latitude36.2011°
Longitude-169.54208°
Altitude303.776 km
Speed7.73 km/s
Apparent Right ascension15h 15m 58s
Apparent Declination0° 49' 01"
Sunlit
Object is in daylight
Visualization observer readout
Local Sidereal Time03:51:48
Azimuth14.032° NNE
Elevation-50.059°
Doppler factor1
Orbital elements
Apogee altitude302.403 km
Perigee altitude300.162 km
Semi-major axis6,679.42 km
Eccentricity0.0001678
Inclination43.0024°
RAAN94.4501°
Arg. of periapsis288.9267°
True anomaly244.30657°
Mean anomaly244.3239°
Eccentric anomaly244.31524°
Mean motion3.9759 °/min
BSTAR-0.0023871
Orbital period90.55 mins
Loading maneuver chart data...
Loading historical data...
Loading historical data...
Loading historical data...
Loading historical data...
Loading historical data...
Loading historical data...
Loading historical data...

STARLINK-32624 Visibility forecast

Observer location: undefined°, undefined

Span
Click to sort rows by Start time (UTC) header in descending order
Start Az.
Max El. time (UTC)
Max El. Az.
Max El.
End time (UTC)
End Az.
4 mins2024-11-21 12:34:12.038Z230.43° WSW2024-11-21 12:36:12.038Z190.642° SSW32.577°2024-11-21 12:38:12.038Z88.312° E
4 mins2024-11-21 15:45:12.038Z301.816° NW2024-11-21 15:46:12.038Z331.033° NNW32.425°2024-11-21 15:49:12.038Z85.509° E
|